Location: Larkspur
(54.4391°N, 113.7691°W)
Time: 12:51:18
(UTC+00:00)

Oscar 19 - Pass Details

Date: 29 November 2023
Orbit: 771 x 789 km, 98.9° (Epoch: 01 March)

Event Time Altitude Azimuth Distance (km) Brightness Sun altitude
Rises 13:33:49 0° 12° (NNE) 3,268 13.8 -15.9°
Reaches altitude 10° 13:36:15 10° 5° (N) 2,338 13.0 -15.5°
Maximum altitude 13:41:00 39° 298° (WNW) 1,165 11.0 -14.9°
Drops below altitude 10° 13:45:44 10° 232° (SW) 2,335 12.8 -14.2°
Sets 13:48:10 0° 224° (SW) 3,262 13.6 -13.9°
